CSW615 BKPR-LSZH

Flight info

Callsign CSW615
Flight time N/A
Altitude 36000
Route KUKAD1A KUKAD DCT RETRA DCT GIMIX DCT ERKIR DCT KPT L856 NEGRA
Aircraft A320/M-SDE3FGHIRWY/LB1

Departure

Time 2026-05-07 13:14
Airport Priština Adem Jashari International Airport (BKPR)

Arrival

Time N/A
Airport Zürich Airport (LSZH)
Time Latitude Longitude Altitude Speed Heading
2026-05-07 12:49 42.57491 21.03120 1787 ft 0 kts 265°
2026-05-07 13:04 42.57492 21.03143 1787 ft 4 kts 261°
2026-05-07 13:05 42.57498 21.03178 1786 ft 4 kts 248°
2026-05-07 13:05 42.57511 21.03209 1786 ft 4 kts 220°
2026-05-07 13:05 42.57528 21.03220 1784 ft 0 kts 175°
2026-05-07 13:07 42.57517 21.03221 1784 ft 7 kts 175°
2026-05-07 13:07 42.57467 21.03226 1787 ft 6 kts 175°
2026-05-07 13:08 42.57429 21.03230 1786 ft 5 kts 175°
2026-05-07 13:08 42.57401 21.03233 1787 ft 4 kts 175°
2026-05-07 13:08 42.57346 21.03242 1786 ft 9 kts 164°
2026-05-07 13:08 42.57324 21.03302 1787 ft 7 kts 94°
2026-05-07 13:09 42.57281 21.03344 1787 ft 11 kts 171°
2026-05-07 13:09 42.57213 21.03351 1786 ft 9 kts 176°
2026-05-07 13:09 42.57150 21.03357 1785 ft 9 kts 175°
2026-05-07 13:09 42.57090 21.03364 1785 ft 7 kts 175°
2026-05-07 13:10 42.57051 21.03368 1786 ft 4 kts 175°
2026-05-07 13:10 42.57017 21.03371 1786 ft 10 kts 175°
2026-05-07 13:10 42.56920 21.03382 1785 ft 16 kts 176°
2026-05-07 13:10 42.56793 21.03395 1781 ft 20 kts 175°
2026-05-07 13:11 42.56652 21.03409 1783 ft 20 kts 176°
2026-05-07 13:11 42.56507 21.03424 1782 ft 22 kts 176°
2026-05-07 13:11 42.56355 21.03439 1785 ft 22 kts 176°
2026-05-07 13:11 42.56212 21.03453 1791 ft 20 kts 175°
2026-05-07 13:12 42.56074 21.03467 1794 ft 20 kts 175°
2026-05-07 13:12 42.55941 21.03482 1797 ft 19 kts 176°
2026-05-07 13:12 42.55815 21.03508 1796 ft 16 kts 132°
2026-05-07 13:12 42.55809 21.03653 1799 ft 16 kts 86°
2026-05-07 13:13 42.55859 21.03730 1796 ft 8 kts 359°
2026-05-07 13:13 42.55937 21.03725 1798 ft 25 kts 354°
2026-05-07 13:13 42.56380 21.03678 1786 ft 99 kts 357°
2026-05-07 13:13 42.57252 21.03590 1794 ft 154 kts 356°
2026-05-07 13:14 42.58348 21.03493 2243 ft 160 kts 356°
2026-05-07 13:14 42.59448 21.03386 2884 ft 161 kts 355°
2026-05-07 13:14 42.60582 21.03268 3485 ft 164 kts 355°
2026-05-07 13:14 42.61767 21.03143 3754 ft 184 kts 355°
2026-05-07 13:15 42.63122 21.02978 3978 ft 207 kts 350°
2026-05-07 13:15 42.64447 21.02032 4237 ft 230 kts 315°